Location: Haulchin
(50.3172°N, 3.4360°E)
Time: 14:56:05
(UTC+00:00)

Cosmos 2369 - Pass Details

Date: 23 May 2024
Orbit: 837 x 856 km, 71.0° (Epoch: 16 June)

Event Time Altitude Azimuth Distance (km) Brightness Sun altitude
Rises 01:15:19 0° 325° (NW) 3,429 7.3 -16.2°
Reaches altitude 10° 01:17:57 10° 317° (NW) 2,491 6.4 -16.0°
Maximum altitude 01:23:03 35° 254° (WSW) 1,361 4.5 -15.7°
Enters shadow 01:25:35 24° 209° (SSW) 1,706 4.7 -15.5°
